JCSAT-18 (KACIFIC 1)

Last updated on Thu Nov 21 2024 00:02:44 GMT+0000 (Coordinated Universal Time)

1 44868U 19091A 24323.82407742 -.00000199 00000+0 00000+0 0 9996 2 44868 0.0149 333.7848 0000963 263.1553 268.0753 1.00268775 18326
UTC large
Height (km)
Speed (km/s)
/
Latitude / Longitude
Inclination (degrees)
Orbital Period (minutes)
Azimuth
Elevation
Range (km)
Doppler Factor

Next 0 passes for location: London (51.5072 / 0.1276)

Sorry there are no passes over London.